sat.trackr.live / text

‹ back to catalog

STARLINK-5550

NORAD 56361 · 2023-058AW

PAYLOAD ACTIVE UNKNOWN

§ Identity

Operator
Country
US
Launch date
2023-04-27
Launch site
AFWTR
Launch vehicle
Mass (kg)
RCS (m²)

Purposes: comms

External: N2YO · Heavens-Above · Gunter

§ Orbital elements

Epoch: 2026-09-20T22:00:03.000096Z

Period
94.92 min
Inclination
97.2841°
Eccentricity
0.0001211
Mean motion
15.17039240 rev/d
Perigee alt
514.0 km
Apogee alt
515.6 km
Semi-major
6,892.9 km
B*
4.3960e-3
RAAN
257.7997°
Arg perigee
51.3408°
Mean anomaly
91.5121°
Rev number
578

§ Raw data

STARLINK-55501 56361U 23058AW  26263.91670139  .00087876  00000+0  43960-2 0  99932 56361  97.2841 257.7997 0001211  51.3408  91.5121 15.17039240  5787

JSON: /api/v1/satellites/56361 · /tle

For live sub-satellite position, see the globe view (requires WebGL).

§ Visibility from observer

Set your observer location to see the next 7 days of passes ≥ 10°. The values pass through the URL so the page stays shareable.

No JS? Fill the form by hand. The geolocation button needs JavaScript.